KQA271 FIMP-HKJK

Flight info

Callsign KQA271
Flight time N/A
Altitude 32000
Route OKMAR2C OKMAR DCT MAEVA UL433 DO/N0476F340 UL433 ATOLA/N0476F330 UL433 KISAK/N0474F340 UL433 MOKAD UQ315 UTEPI UTEPI2C
Aircraft B738/M-SDE1E2E3FGHIJ2J3J4J5M1RWXYZ/LB1D1

Departure

Time 2026-05-08 08:34
Airport Sir Seewoosagur Ramgoolam International Airport (FIMP)

Arrival

Time N/A
Airport Jomo Kenyatta International Airport (HKJK)
Time Latitude Longitude Altitude Speed Heading
2026-05-08 07:55 -20.43129 57.67766 193 ft 0 kts 207°
2026-05-08 08:24 -20.43127 57.67767 192 ft 2 kts 207°
2026-05-08 08:24 -20.43114 57.67775 192 ft 2 kts 207°
2026-05-08 08:24 -20.43100 57.67782 191 ft 2 kts 206°
2026-05-08 08:25 -20.43087 57.67791 191 ft 2 kts 223°
2026-05-08 08:25 -20.43077 57.67802 191 ft 2 kts 234°
2026-05-08 08:25 -20.43070 57.67816 190 ft 2 kts 248°
2026-05-08 08:25 -20.43066 57.67831 189 ft 2 kts 261°
2026-05-08 08:26 -20.43065 57.67847 189 ft 2 kts 275°
2026-05-08 08:26 -20.43067 57.67863 188 ft 2 kts 288°
2026-05-08 08:26 -20.43073 57.67876 188 ft 0 kts 300°
2026-05-08 08:26 -20.43073 57.67877 188 ft 0 kts 300°
2026-05-08 08:28 -20.43060 57.67853 189 ft 5 kts 300°
2026-05-08 08:28 -20.43050 57.67834 189 ft 0 kts 297°
2026-05-08 08:29 -20.43042 57.67808 190 ft 7 kts 289°
2026-05-08 08:29 -20.43009 57.67738 193 ft 9 kts 298°
2026-05-08 08:29 -20.42985 57.67690 195 ft 5 kts 298°
2026-05-08 08:29 -20.42967 57.67664 195 ft 5 kts 314°
2026-05-08 08:30 -20.42914 57.67626 195 ft 10 kts 330°
2026-05-08 08:30 -20.42856 57.67594 194 ft 8 kts 331°
2026-05-08 08:30 -20.42776 57.67535 194 ft 8 kts 317°
2026-05-08 08:31 -20.42727 57.67491 194 ft 8 kts 330°
2026-05-08 08:31 -20.42680 57.67469 194 ft 6 kts 340°
2026-05-08 08:31 -20.42641 57.67456 194 ft 5 kts 342°
2026-05-08 08:31 -20.42582 57.67426 194 ft 13 kts 314°
2026-05-08 08:32 -20.42526 57.67321 197 ft 16 kts 297°
2026-05-08 08:32 -20.42511 57.67244 200 ft 7 kts 263°
2026-05-08 08:32 -20.42504 57.67212 201 ft 2 kts 298°
2026-05-08 08:32 -20.42486 57.67213 201 ft 5 kts 59°
2026-05-08 08:33 -20.42497 57.67267 199 ft 11 kts 118°
2026-05-08 08:33 -20.42554 57.67375 196 ft 21 kts 117°
2026-05-08 08:33 -20.42693 57.67668 190 ft 76 kts 116°
2026-05-08 08:33 -20.43035 57.68381 166 ft 138 kts 117°
2026-05-08 08:34 -20.43552 57.69458 149 ft 186 kts 116°
2026-05-08 08:34 -20.44172 57.70731 708 ft 195 kts 117°
2026-05-08 08:34 -20.44808 57.72018 1328 ft 207 kts 116°
2026-05-08 08:34 -20.45497 57.73448 1865 ft 226 kts 115°
2026-05-08 08:35 -20.46200 57.74961 2477 ft 232 kts 109°
2026-05-08 08:35 -20.46392 57.76722 2897 ft 247 kts 78°
2026-05-08 08:35 -20.45688 57.78368 3559 ft 253 kts 54°
2026-05-08 08:35 -20.44380 57.79666 4233 ft 263 kts 36°
2026-05-08 08:36 -20.42746 57.80613 4926 ft 268 kts 29°
2026-05-08 08:36 -20.41032 57.81383 5575 ft 275 kts 19°
2026-05-08 08:36 -20.39120 57.81652 6248 ft 283 kts 360°
2026-05-08 08:36 -20.37172 57.81187 6906 ft 291 kts 338°
2026-05-08 08:37 -20.35373 57.80208 7576 ft 294 kts 333°
2026-05-08 08:37 -20.33575 57.79116 8201 ft 297 kts 332°
2026-05-08 08:37 -20.31775 57.78023 8846 ft 299 kts 332°
2026-05-08 08:37 -20.29977 57.76951 9436 ft 302 kts 333°
2026-05-08 08:38 -20.28120 57.75861 10064 ft 305 kts 333°
2026-05-08 08:38 -20.26237 57.74766 10552 ft 314 kts 333°
2026-05-08 08:38 -20.24284 57.73634 10822 ft 329 kts 333°
2026-05-08 08:38 -20.22222 57.72440 11075 ft 344 kts 333°
2026-05-08 08:39 -20.20057 57.71186 11263 ft 360 kts 333°
2026-05-08 08:39 -20.17817 57.69888 11518 ft 374 kts 333°
2026-05-08 08:39 -20.15468 57.68527 11720 ft 389 kts 333°
2026-05-08 08:39 -20.13088 57.67148 12110 ft 396 kts 333°
2026-05-08 08:40 -20.10654 57.65737 12575 ft 401 kts 333°
2026-05-08 08:40 -20.08185 57.64305 13081 ft 404 kts 333°
2026-05-08 08:40 -20.05698 57.62862 13614 ft 406 kts 333°
2026-05-08 08:40 -20.03215 57.61423 14132 ft 408 kts 333°
2026-05-08 08:41 -20.00725 57.59980 14626 ft 411 kts 333°
2026-05-08 08:41 -19.98251 57.58378 15126 ft 414 kts 326°
2026-05-08 08:41 -19.95967 57.56515 15621 ft 417 kts 321°
2026-05-08 08:41 -19.93770 57.54512 16102 ft 420 kts 320°
2026-05-08 08:42 -19.91585 57.52457 16594 ft 421 kts 320°
2026-05-08 08:42 -19.89349 57.50380 17063 ft 424 kts 320°
2026-05-08 08:42 -19.87109 57.48354 17524 ft 426 kts 321°
2026-05-08 08:42 -19.84831 57.46346 17901 ft 429 kts 321°
2026-05-08 08:43 -19.82516 57.44343 18335 ft 431 kts 322°
2026-05-08 08:43 -19.80170 57.42337 18722 ft 434 kts 322°
2026-05-08 08:43 -19.77786 57.40309 19108 ft 437 kts 322°
2026-05-08 08:43 -19.75415 57.38296 19485 ft 439 kts 322°
2026-05-08 08:44 -19.73017 57.36264 19863 ft 442 kts 322°
2026-05-08 08:44 -19.70612 57.34224 20225 ft 444 kts 322°
2026-05-08 08:44 -19.68186 57.32165 20586 ft 446 kts 322°
2026-05-08 08:44 -19.65776 57.30120 20921 ft 448 kts 322°
2026-05-08 08:45 -19.63325 57.28039 21237 ft 451 kts 322°
2026-05-08 08:45 -19.60858 57.25944 21541 ft 454 kts 322°
2026-05-08 08:45 -19.58397 57.23855 21829 ft 457 kts 322°
2026-05-08 08:45 -19.55916 57.21750 22107 ft 460 kts 322°
2026-05-08 08:46 -19.53376 57.19595 22417 ft 463 kts 322°
2026-05-08 08:46 -19.50862 57.17463 22761 ft 464 kts 322°
2026-05-08 08:46 -19.48332 57.15317 23133 ft 465 kts 322°
2026-05-08 08:46 -19.45809 57.13179 23456 ft 467 kts 322°
2026-05-08 08:47 -19.43269 57.11026 23779 ft 469 kts 322°
2026-05-08 08:47 -19.40730 57.08875 24119 ft 470 kts 322°
2026-05-08 08:47 -19.38147 57.06688 24459 ft 472 kts 322°
2026-05-08 08:47 -19.35610 57.04541 24755 ft 474 kts 321°
2026-05-08 08:48 -19.33000 57.02333 25099 ft 475 kts 321°
2026-05-08 08:48 -19.30441 57.00169 25384 ft 477 kts 321°
2026-05-08 08:48 -19.27829 56.97961 25663 ft 479 kts 321°
2026-05-08 08:48 -19.25235 56.95770 25970 ft 480 kts 321°
2026-05-08 08:49 -19.22625 56.93565 26249 ft 482 kts 321°
2026-05-08 08:49 -19.19998 56.91347 26530 ft 483 kts 321°
2026-05-08 08:49 -19.17339 56.89103 26796 ft 485 kts 321°
2026-05-08 08:49 -19.14734 56.86906 27331 ft 480 kts 321°
2026-05-08 08:50 -19.12111 56.84695 27709 ft 479 kts 321°
2026-05-08 08:50 -19.09528 56.82518 28118 ft 477 kts 321°
2026-05-08 08:50 -19.06938 56.80337 28521 ft 475 kts 321°
2026-05-08 08:50 -19.04378 56.78181 28871 ft 474 kts 321°
2026-05-08 08:51 -19.01788 56.76000 29189 ft 473 kts 321°
2026-05-08 08:51 -18.99219 56.73839 29531 ft 472 kts 321°
2026-05-08 08:51 -18.96619 56.71653 29850 ft 471 kts 321°
2026-05-08 08:51 -18.94062 56.69504 30182 ft 470 kts 321°
2026-05-08 08:52 -18.91495 56.67347 30488 ft 469 kts 320°
2026-05-08 08:52 -18.88958 56.65216 30770 ft 468 kts 320°
2026-05-08 08:52 -18.86404 56.63071 31031 ft 468 kts 320°
2026-05-08 08:52 -18.83832 56.60912 31308 ft 467 kts 320°
2026-05-08 08:53 -18.81285 56.58775 31557 ft 467 kts 320°
2026-05-08 08:53 -18.78748 56.56647 31837 ft 466 kts 320°
2026-05-08 08:53 -18.76209 56.54519 32036 ft 466 kts 320°
2026-05-08 08:53 -18.73671 56.52391 32041 ft 467 kts 320°
2026-05-08 08:54 -18.68622 56.48161 32045 ft 465 kts 320°
2026-05-08 08:54 -18.63532 56.43903 32042 ft 465 kts 320°
2026-05-08 08:55 -18.58470 56.39669 32041 ft 464 kts 320°
2026-05-08 08:55 -18.53413 56.35443 32041 ft 464 kts 320°
2026-05-08 08:56 -18.48362 56.31226 32038 ft 464 kts 320°
2026-05-08 08:56 -18.43303 56.27005 32037 ft 465 kts 320°
2026-05-08 08:57 -18.38227 56.22774 32036 ft 465 kts 320°
2026-05-08 08:57 -18.33132 56.18531 32037 ft 465 kts 320°
2026-05-08 08:58 -18.28079 56.14326 32035 ft 465 kts 320°
2026-05-08 08:58 -18.23028 56.10058 32030 ft 464 kts 317°
2026-05-08 08:59 -18.18569 56.05138 32033 ft 463 kts 308°
2026-05-08 08:59 -18.14736 55.99714 32031 ft 462 kts 304°
2026-05-08 09:00 -18.11137 55.94158 32032 ft 462 kts 303°
2026-05-08 09:00 -18.10531 55.93210 32032 ft 462 kts 303°